Location: Coffee Ditch
(40.9640°N, 122.7500°W)
Time: 07:57:34
(UTC+00:00)

Okean 1-7 Rocket - Pass Details

Date: 08 September 2024
Orbit: 612 x 646 km, 82.5° (Epoch: 05 October)

Event Time Altitude Azimuth Distance (km) Brightness Sun altitude
Rises 12:21:11 0° 352° (N) 2,944 7.2 -16.1°
Reaches altitude 10° 12:23:26 10° 353° (N) 2,026 6.4 -15.7°
Maximum altitude 12:27:57 88° 84° (E) 635 3.6 -14.9°
Drops below altitude 10° 12:32:21 10° 173° (S) 1,988 6.0 -14.2°
Sets 12:34:33 0° 173° (S) 2,884 6.9 -13.8°
